Weather History for Evanston, WY

Change the Weather History Date:

Tuesday, March 12, 2013

  Actual Average Record
Temperature  
Mean Temperature 37 °F 30 °F  
Max Temperature 43 °F 38 °F 57 °F (2007)
Min Temperature 31 °F 21 °F 9 °F (2006)
Degree Days  
Heating Degree Days 28 35  
Month to date heating degree days 412 446  
Since 1 July heating degree days 6007 6454  
Cooling Degree Days 0 0  
Month to date cooling degree days 0 0  
Year to date cooling degree days 0 0  
Moisture  
Dew Point 27 °F    
Average Humidity 70    
Maximum Humidity 82    
Minimum Humidity 57    
Precipitation  
Precipitation 0.00 in 0.02 in 0.08 in (2006)
Month to date precipitation 0.15 0.25  
Year to date precipitation 0.62 1.40  
Sea Level Pressure  
Sea Level Pressure 30.24 in    
Wind  
Wind Speed 10 mph (SW)    
Max Wind Speed 17 mph    
Max Gust Speed 21 mph    
Visibility 10 miles    
Events      
T = Trace of Precipitation, MM = Missing Value Source: NWS Daily Summary

Daily Weather History Graph

Daily Weather History Graph

Search for Another Location

Airport:

Trip Planner

Search our weather history database for the weather conditions in past years. The results will help you decide how hot, cold, wet, or windy it might be!

Date:

Astronomy

Mar. 12, 2013 Rise Set
Actual Time 7:40 AM MDT 7:27 PM MDT
Civil Twilight 7:12 AM MDT 7:55 PM MDT
Nautical Twilight 6:40 AM MDT 8:27 PM MDT
Astronomical Twilight 6:08 AM MDT 8:59 PM MDT
Moon 7:47 AM MDT (3/12) 8:48 PM MDT (3/12)
Length of Visible Light 12h 42m
Length of Day
11h 47m
New Moon, 1% of the Moon is Illuminated
Mar 12
New Moon
Mar 19
First Quarter
Mar 27
Full
Apr 2
Last Quarter
Apr 10
New

Hourly Weather History & Observations

Time (MDT) Temp. Windchill Dew Point Humidity Pressure Visibility Wind Dir Wind Speed Gust Speed Precip Events Conditions
12:53 AM 33.1 °F 28.7 °F 26.1 °F 75% 30.16 in 10.0 mi Variable 4.6 mph - N/A   Clear
1:53 AM 33.1 °F 24.9 °F 27.0 °F 78% 30.15 in 10.0 mi WSW 10.4 mph - N/A   Overcast
2:16 AM 33.8 °F 25.8 °F 26.6 °F 75% 30.20 in 10.0 mi WSW 10.4 mph - N/A   Overcast
2:39 AM 33.8 °F 25.3 °F 26.6 °F 75% 30.20 in 10.0 mi WSW 11.5 mph - N/A   Overcast
2:53 AM 34.0 °F 26.0 °F 27.0 °F 75% 30.17 in 10.0 mi SW 10.4 mph - N/A   Overcast
3:53 AM 34.0 °F 25.0 °F 27.0 °F 75% 30.17 in 10.0 mi WSW 12.7 mph - N/A   Overcast
4:48 AM 33.8 °F 26.4 °F 26.6 °F 75% 30.20 in 10.0 mi WSW 9.2 mph - N/A   Overcast
4:53 AM 33.1 °F 25.5 °F 27.0 °F 78% 30.17 in 10.0 mi WSW 9.2 mph - N/A   Overcast
5:28 AM 33.8 °F 27.0 °F 28.4 °F 81% 30.22 in 10.0 mi SW 8.1 mph - N/A   Overcast
5:53 AM 32.0 °F 26.4 °F 28.0 °F 85% 30.20 in 10.0 mi SSW 5.8 mph - N/A   Overcast
6:53 AM 33.1 °F 26.1 °F 28.0 °F 82% 30.22 in 10.0 mi South 8.1 mph - N/A   Overcast
7:53 AM 33.1 °F 26.9 °F 27.0 °F 78% 30.22 in 10.0 mi SW 6.9 mph - N/A   Overcast
8:53 AM 33.1 °F 25.5 °F 28.0 °F 82% 30.23 in 10.0 mi SW 9.2 mph - N/A   Overcast
9:53 AM 34.0 °F 28.8 °F 28.0 °F 79% 30.27 in 10.0 mi SW 5.8 mph - N/A   Mostly Cloudy
10:53 AM 36.0 °F - 28.0 °F 73% 30.27 in - North - - N/A   Overcast
11:25 AM 35.6 °F 28.0 °F 28.4 °F 75% 30.30 in 10.0 mi WSW 10.4 mph - N/A   Overcast
11:53 AM 37.0 °F 29.8 °F 27.0 °F 67% 30.29 in 10.0 mi SW 10.4 mph - N/A   Overcast
12:04 PM 37.4 °F 31.4 °F 26.6 °F 65% 30.31 in 10.0 mi SW 8.1 mph - N/A   Overcast
12:33 PM 37.4 °F 30.3 °F 26.6 °F 65% 30.31 in 10.0 mi SW 10.4 mph - N/A   Overcast
12:53 PM 37.9 °F 30.0 °F 27.0 °F 65% 30.27 in 10.0 mi SW 12.7 mph - N/A   Mostly Cloudy
1:53 PM 39.0 °F 31.4 °F 26.1 °F 60% 30.26 in 10.0 mi WSW 12.7 mph - N/A   Clear
2:53 PM 39.9 °F 33.4 °F 28.0 °F 63% 30.23 in 10.0 mi WSW 10.4 mph - N/A   Scattered Clouds
3:53 PM 42.1 °F 34.9 °F 28.0 °F 58% 30.21 in 10.0 mi WSW 13.8 mph - N/A   Clear
4:53 PM 42.1 °F 34.2 °F 28.0 °F 58% 30.21 in 10.0 mi WSW 16.1 mph - N/A   Scattered Clouds
5:53 PM 42.1 °F 35.2 °F 28.0 °F 58% 30.23 in 10.0 mi WSW 12.7 mph - N/A   Clear
6:53 PM 37.0 °F 31.0 °F 28.9 °F 73% 30.26 in 10.0 mi WSW 8.1 mph - N/A   Clear
7:53 PM 36.0 °F 27.1 °F 28.0 °F 73% 30.26 in 10.0 mi WSW 13.8 mph - N/A   Clear
8:53 PM 34.0 °F 26.6 °F 26.1 °F 73% 30.29 in 10.0 mi WSW 9.2 mph - N/A   Clear
9:53 PM 34.0 °F 26.0 °F 26.1 °F 73% 30.29 in 10.0 mi SW 10.4 mph - N/A   Clear
10:53 PM 33.1 °F 27.7 °F 25.0 °F 72% 30.30 in 10.0 mi SW 5.8 mph - N/A   Clear
11:53 PM 33.1 °F 24.9 °F 25.0 °F 72% 30.30 in 10.0 mi SW 10.4 mph - N/A   Clear